Flag for Greece Weather past 2 weeks in Chania, Crete, Greece

Now
72 °F

Clear.


Feels Like: 72 °F
Forecast: 76 / 85 °F
Wind: No wind

Location: Souda Airport

Current Time: Sep 2, 2014 at 7:30:27 AM

Latest Report: Sep 2, 2014 at 6:50 AM


Visibility: 10 mi

Pressure: 29.74 "Hg

Humidity: 78%

Dew point: 64 °F

Location of ChaniaLocation

Historic Weather in Chania — Graph

°F

Chania temperature yesterday

Maximum temperature yesterday: 86 °F (at 12:50 PM)
Minimum temperature yesterday: 72 °F (at 12:20 AM)
Average temperature yesterday: 78 °F

Past Weeks' High & Low Weather Summary

 TemperatureHumidityPressure
High99 °F (Aug 24, 5:20 PM)94% (Aug 29, 4:50 AM)30.01 "Hg (Aug 29, 4:50 AM)
Low66 °F (Aug 20, 6:50 AM)16% (Aug 21, 1:50 PM)29.74 "Hg (Aug 28, 5:50 AM)
Average81 °F55%29.90 "Hg
* Reported Aug 18 6:20 AM — Sep 2 6:20 AM, Chania, Weather by CustomWeather, © 2014

Note: Actual official high and low records may vary slightly from our data, if they occured in-between our weather recording intervals... More about our weather records

Advertising

Chania weather history for previous 24 hours

 ConditionsComfort  
Time TempWeatherWind HumidityBarometerVisibility
6:20 AM
Sep 2
72 °FPassing clouds.No wind78%29.74 "HgN/A
5:50 AM72 °FPassing clouds.No wind78%29.74 "HgN/A
5:20 AM72 °FPassing clouds.5 mph73%29.77 "HgN/A
4:50 AM72 °FPassing clouds.5 mph73%29.77 "HgN/A
4:20 AM72 °FPassing clouds.6 mph78%29.77 "HgN/A
3:50 AM72 °FPassing clouds.6 mph78%29.77 "HgN/A
3:20 AM73 °FPassing clouds.6 mph74%29.77 "HgN/A
2:50 AM73 °FPassing clouds.9 mph74%29.77 "HgN/A
2:20 AM73 °FPassing clouds.8 mph83%29.80 "HgN/A
1:50 AM73 °FPassing clouds.8 mph83%29.80 "HgN/A
1:20 AM75 °FPassing clouds.7 mph78%29.80 "HgN/A
12:50 AM75 °FPassing clouds.7 mph78%29.80 "HgN/A
12:20 AM75 °FPassing clouds.12 mph78%29.80 "HgN/A
11:20 PM
Sep 1
75 °FPassing clouds.10 mph83%29.80 "HgN/A
10:50 PM75 °FPassing clouds.10 mph83%29.80 "HgN/A
10:20 PM75 °FPassing clouds.12 mph83%29.80 "HgN/A
9:50 PM75 °FPassing clouds.12 mph83%29.80 "HgN/A
9:20 PM77 °FPassing clouds.10 mph74%29.80 "HgN/A
8:50 PM77 °FPassing clouds.12 mph74%29.80 "HgN/A
8:20 PM77 °FPassing clouds.12 mph69%29.80 "HgN/A
7:50 PM79 °FPassing clouds.10 mph65%29.80 "HgN/A
7:20 PM81 °FPassing clouds.12 mph62%29.80 "HgN/A
6:50 PM81 °FPassing clouds.17 mph62%29.80 "HgN/A
6:20 PM84 °FScattered clouds.14 mph62%29.80 "HgN/A
5:50 PM84 °FScattered clouds.10 mph62%29.80 "HgN/A
5:20 PM86 °FScattered clouds.9 mph59%29.80 "HgN/A
4:50 PM86 °FScattered clouds.12 mph59%29.80 "HgN/A
4:20 PM86 °FPassing clouds.10 mph55%29.80 "HgN/A
3:50 PM86 °FPassing clouds.8 mph55%29.83 "HgN/A
3:20 PM86 °FPassing clouds.6 mph55%29.83 "HgN/A
2:50 PM86 °FPassing clouds.8 mph55%29.83 "HgN/A
2:20 PM86 °FPassing clouds.9 mph55%29.83 "HgN/A
1:50 PM86 °FPassing clouds.8 mph55%29.83 "HgN/A
1:20 PM86 °FPassing clouds.10 mph55%29.83 "HgN/A
12:50 PM86 °FPassing clouds.6 mph55%29.83 "HgN/A
12:20 PM84 °FPassing clouds.6 mph58%29.83 "HgN/A
11:50 AM84 °FPassing clouds.6 mph58%29.83 "HgN/A
11:20 AM82 °FPassing clouds.6 mph66%29.83 "HgN/A
10:50 AM82 °FPassing clouds.6 mph66%29.83 "HgN/A
10:20 AM81 °FPassing clouds.8 mph70%29.83 "HgN/A
9:20 AM77 °FSunny.6 mph74%29.83 "Hg10 mi
8:50 AM77 °FSunny.6 mph74%29.83 "Hg10 mi
7:50 AM73 °FClear.6 mph83%29.83 "Hg10 mi
7:20 AM72 °FClear.5 mph83%29.80 "Hg10 mi
Weather by CustomWeather, © 2014

See weather overviewHow to use our weather pages